Regional Weather Roundup
Issued by NWS Jackson, KY

Home | Current Version | Previous Version | Text Only | Print | Product List | Glossary Off
Versions: 1 2 3 4 5 6 7 8 9 10 11 12 13 14 15 16 17 18 19 20 21 22 23 24 25 26 27 28 29 30 31 32 33 34 35 36 37 38 39 40 41 42 43 44 45 46 47 48 49 50

000
ASUS43 KJKL 182010
RWRJKL

EAST KENTUCKY HOURLY WEATHER ROUNDUP
NATIONAL WEATHER SERVICE JACKSON KY
400 PM EDT SAT APR 18 2015

NOTE: "FAIR" INDICATES FEW OR NO CLOUDS BELOW 12,000 FEET WITH
NO SIGNIFICANT WEATHER AND/OR OBSTRUCTIONS TO VISIBILITY.

* THESE REPORTS ARE NOT UNDER NWS QUALITY CONTROL AND MAY NOT
  REPORT WEATHER SUCH AS PRECIPITATION AND FOG.

KYZ079-080-083-085-087-088-110-112-115-119-120-182100
...EASTERN KENTUCKY...

CITY           SKY/WX    TMP DP  RH WIND       PRES   REMARKS
JACKSON        MOSUNNY   82  49  31 CALM      29.97F
LONDON         MOSUNNY   82  50  32 VRB5      29.95F
SOMERSET*      PTSUNNY   77  52  41 CALM      29.95F
MONTICELLO*    MOSUNNY   80  57  45 NE9       29.96F
MIDDLESBORO*   CLOUDY    79  53  40 CALM      29.95F
HARLAN APT*    CLOUDY    79  46  31 CALM      29.96F
HAZARD APT*    CLEAR     79  43  27 CALM      29.96F
BLACK MTN*       N/A     68  46  45 SE3         N/A
PIKEVILLE APT* SUNNY     77  48  36 N5        29.97F
BIG SANDY*     PTCLDY   N/A N/A N/A NE5       29.97F
MOREHEAD APT*  PTCLDY    77  41  27 CALM      30.01F
$$

KYZ035-036-041-042-044-050-067-078-099-182100
...CENTRAL KENTUCKY...

CITY           SKY/WX    TMP DP  RH WIND       PRES   REMARKS
MT STERLING*   MOSUNNY   77  52  41 NE7       30.00F
FLEMING/MASON* SUNNY     77  45  31 N10G17    30.00F
DANVILLE*      SUNNY     77  54  44 NE7       29.98F
RICHMOND*      SUNNY     77  50  38 N8        29.96F
LEXINGTON      SUNNY     77  49  37 NE12      29.98F
FRANKFORT      MOSUNNY   77  47  34 E10       29.97F
$$

KYZ091>093-OHZ055-061-077-WVZ005-015-034-035-042-182100
...SOUTHERN OHIO/WEST VIRGINIA...

CITY           SKY/WX    TMP DP  RH WIND       PRES   REMARKS
COVINGTON      PTSUNNY   78  46  32 E14       30.01F
COLUMBUS       CLOUDY    78  44  29 NE9       30.00F
DAYTON         PTSUNNY   78  49  35 NE6       30.03F
WILMINGTON     PTSUNNY   74  45  35 E8        30.02S
HUNTINGTON     PTSUNNY   78  46  32 VRB5      29.97F
CHARLESTON     PTSUNNY   81  45  28 CALM      29.97F
PINEVILLE*     MOSUNNY   79  46  30 MISG      30.01F
BECKLEY        PTSUNNY   76  44  32 MISG      30.00F
BLUEFIELD      PTSUNNY   77  40  26 CALM      30.02F
$$

VAZ002-007-008-TNZ017-027-036-066-071-182100
...SOUTHWEST VIRGINIA/EAST TENNESSEE...

CITY           SKY/WX    TMP DP  RH WIND       PRES   REMARKS
WISE*          CLOUDY    73  45  35 NE6       30.02F
JONESVILLE*    CLOUDY    81  48  32 CALM      29.97F
ABINGDON*      PTSUNNY   78  47  33 N5        29.98F
BRISTOL        CLOUDY    79  51  37 CALM      29.95F
KNOXVILLE      CLOUDY    77  59  53 NE7       29.90F
OAK RIDGE      PTSUNNY   82  55  39 VRB6      29.92F
CROSSVILLE     PTSUNNY   75  54  47 SE7       29.96F
NASHVILLE      PTSUNNY   79  60  52 NE6       29.93F
$$

...KEY TO REMARKS...
VSB - VISIBILITY IN MILES
WCI - WIND CHILL INDEX
HX  - HEAT INDEX

$$


USA.gov is the U.S. government's official web portal to all federal, state and local government web resources and services.